OneWeb SL0189

operational
NORAD ID: 48217 Int'l Des: 2021-031 Owner: ONEWEBN Country: UK Constellation: oneweb
LEOCIRCULARPOLARONEWEB_TYPE

About OneWeb SL0189

Description loading...

Live Position

Loading 3D Globe...

Upcoming Passes

Altitude History

Altitude vs Time

uPlot chart will show altitude changes over time

Two-Line Element Set

1 48217U 21031H 25303.13517189 -.00000251 00000-0 -71262-3 0 9998
2 48217 87.9011 335.5257 0002259 92.7909 267.3480 13.14503887218005
Epoch: Oct 30, 2025 • Age: 22 hours

Current Status

Altitude 1214.8 km
Velocity 7.25 km/s
Sub-Earth Point 61.24°N, 82.6°W
Launch Date Apr 25, 2021
Age 4.5 years
Type internet

Technical Details

Classification Payload
Mass 148.00 kg
Dry Mass 140.00 kg
Total Mass 148.00 kg
Length 1.30 m
Diameter 1.00 m
Span 5.00 m
Shape Trapezoid+2 pan
Manufacturer ONEWUS
Bus Type ARROW
Phase Status In Orbit
Owner/State ONEWEBN/UK

Large Constellations

Loading constellations...